{"data":{"norad_id":53204,"intl_designator":"2022-084R","name":"STARLINK-4410","alt_names":[],"object_type":"PAYLOAD","status":"ACTIVE","operator":null,"country":"US","launch_date":"2022-07-22","launch_site_code":"AFWTR","launch_vehicle":null,"mission":null,"orbit_class":"UNKNOWN","rcs_meters":null,"size_class":null,"mass_kg":null,"dimensions":null,"purposes":["comms"],"wikipedia_slug":null,"has_3d_model":false,"image_url":null,"decayed_at":null,"tle_current":{"epoch":"2026-09-19T23:20:51.101088Z","epoch_age_seconds":117804,"freshness":"FRESH","line1":"1 53204U 22084R   26262.97281367  .00001231  00000+0  36344-4 0  9991","line2":"2 53204  97.4764 326.8022 0001233 219.9631 140.1522 15.36973778229572","mean_motion":15.36973778,"eccentricity":0.0001233,"inclination_deg":97.4764,"raan_deg":326.8022,"arg_perigee_deg":219.9631,"mean_anomaly_deg":140.1522,"bstar":3.6344e-5,"rev_number":22957,"period_min":93.690602963559,"perigee_km":454.2215730348,"apogee_km":455.90664042772,"semimajor_km":6833.2011067313,"source":"CELESTRAK","updated_at":"2026-09-20T09:00:40.191592Z"}}}